Burley, ID

2:36 AM MDT on May 27, 2018 (GMT -0600)
Burley Municipal

Weather History for KBYI - September, 2012

Change the Weather History Date:

Saturday, September 15, 2012

  Actual Average Record
Temperature  
Mean Temperature 67 °F 59 °F  
Max Temperature 83 °F 75 °F 95 °F (2000)
Min Temperature 50 °F 43 °F 32 °F (1952)
Degree Days  
Heating Degree Days 0 7  
Month to date heating degree days 40 71  
Since 1 July heating degree days 42 128  
Cooling Degree Days 2 1  
Month to date cooling degree days 8 18  
Year to date cooling degree days 544 362  
Growing Degree Days 16 (Base 50)    
Moisture  
Dew Point 34 °F    
Average Humidity 37    
Maximum Humidity 55    
Minimum Humidity 18    
Precipitation  
Precipitation T in 0.02 in 0.25 in (1996)
Month to date precipitation 0.31 0.25  
Year to date precipitation 6.65 7.01  
Sea Level Pressure  
Sea Level Pressure 30.05 in    
Wind  
Wind Speed 5 mph (SW)    
Max Wind Speed 15 mph    
Max Gust Speed 18 mph    
Visibility 10 miles    
Events      
T = Trace of Precipitation, MM = Missing Value Source: NWS Daily Summary

Daily Weather History Graph

Daily Weather History Graph

Search for Another Location

Airport or City:

Astronomy

Sep. 15, 2012 Rise Set
Actual Time 7:15 AM MDT 7:43 PM MDT
Civil Twilight 6:47 AM MDT 8:12 PM MDT
Nautical Twilight 6:13 AM MDT 8:45 PM MDT
Astronomical Twilight 5:39 AM MDT 9:19 PM MDT
Moon 6:51 AM MDT (9/15) 7:14 PM MDT (9/15)
Length of Visible Light 13h 24m
Length of Day
12h 28m
Waning Crescent, 0% of the Moon is Illuminated
Sep 15
Waning Crescent
Sep 15
New
Sep 22
First Quarter
Sep 29
Full
Oct 8
Last Quarter

Hourly Weather History & Observations

Time (MDT) Temp. Dew Point Humidity Pressure Visibility Wind Dir Wind Speed Gust Speed Precip Events Conditions
12:53 AM 66.9 °F 21.0 °F 17% 30.01 in 10.0 mi South 10.4 mph - N/A   Clear
1:53 AM 63.0 °F 21.9 °F 21% 30.02 in 10.0 mi South 10.4 mph - N/A   Clear
2:53 AM 64.0 °F 21.9 °F 20% 30.00 in 10.0 mi SSW 11.5 mph - N/A   Clear
3:39 AM 62.6 °F 23.0 °F 22% 30.15 in 10.0 mi West 6.9 mph 18.4 mph N/A   Clear
3:53 AM 60.1 °F 28.9 °F 31% 30.02 in 10.0 mi WNW 3.5 mph - N/A   Clear
4:53 AM 50.0 °F 30.9 °F 48% 30.04 in 10.0 mi Calm Calm - N/A   Clear
5:53 AM 54.0 °F 26.1 °F 34% 30.05 in 10.0 mi SSW 4.6 mph - N/A   Clear
6:53 AM 55.0 °F 26.1 °F 33% 30.06 in 10.0 mi SSW 9.2 mph - N/A   Clear
7:53 AM 55.9 °F 25.0 °F 30% 30.10 in 10.0 mi WSW 4.6 mph - N/A   Clear
8:53 AM 64.0 °F 28.0 °F 26% 30.09 in 10.0 mi SSW 11.5 mph - N/A   Clear
9:53 AM 69.1 °F 32.0 °F 25% 30.10 in 10.0 mi West 3.5 mph - N/A   Clear
10:53 AM 70.0 °F 39.9 °F 33% 30.10 in 10.0 mi Calm Calm - N/A   Clear
11:53 AM 75.0 °F 30.9 °F 20% 30.10 in 10.0 mi West 8.1 mph - N/A   Clear
12:53 PM 79.0 °F 36.0 °F 21% 30.07 in 10.0 mi WNW 8.1 mph - N/A   Clear
1:53 PM 82.0 °F 37.0 °F 20% 30.06 in 10.0 mi West 8.1 mph - N/A   Clear
2:53 PM 81.0 °F 35.1 °F 19% 30.04 in 10.0 mi WNW 9.2 mph - N/A   Clear
3:53 PM 79.0 °F 37.9 °F 23% 30.03 in 10.0 mi Variable 4.6 mph - N/A   Clear
4:53 PM 80.1 °F 42.1 °F 26% 30.03 in 10.0 mi Calm Calm - N/A   Clear
5:53 PM 77.0 °F 46.9 °F 34% 30.01 in 10.0 mi WSW 4.6 mph - N/A   Clear
6:53 PM 77.0 °F 44.1 °F 31% 30.00 in 10.0 mi SSE 4.6 mph - N/A   Clear
7:53 PM 68.0 °F 46.9 °F 47% 30.01 in 10.0 mi Calm Calm - N/A   Clear
8:53 PM 63.0 °F 44.1 °F 50% 30.01 in 10.0 mi South 5.8 mph - 0.00 in   Clear
9:53 PM 61.0 °F 39.9 °F 46% 30.01 in 10.0 mi Calm Calm - N/A   Clear
10:53 PM 57.9 °F 39.0 °F 49% 30.01 in 10.0 mi SSW 6.9 mph - N/A   Clear
11:53 PM 55.0 °F 39.0 °F 55% 30.01 in 10.0 mi Calm Calm - N/A   Clear